New Orleans Lakefront, LA

11:42 AM CDT on September 23, 2019 (GMT -0500)
Lakefront

Weather History for KNEW - July, 2019

Change the Weather History Date:

Saturday, July 20, 2019

  Actual Average Record
Temperature  
Mean Temperature 83 °F 83 °F  
Max Temperature 90 °F 91 °F 98 °F (2000)
Min Temperature 76 °F 75 °F 69 °F (1984)
Degree Days  
Heating Degree Days 0 0  
Month to date heating degree days 0 0  
Since 1 June heating degree days 0 0  
Since 1 July heating degree days 0 0  
Cooling Degree Days 18 18  
Month to date cooling degree days 404 360  
Year to date cooling degree days 1799 1474  
Since 1 June cooling degree days 984 855  
Growing Degree Days 32 (Base 50)    
Moisture  
Dew Point 73 °F    
Average Humidity 78    
Maximum Humidity 91    
Minimum Humidity 64    
Precipitation  
Precipitation 0.30 in 0.18 in 3.57 in (2012)
Month to date precipitation 4.41 4.00  
Year to date precipitation 35.76 36.30  
Snow  
Snow 0.00 in - - ()
Month to date snowfall 0.0  
Since 1 June snowfall 0.0  
Since 1 July snowfall 0.0  
Snow Depth 0.00 in    
Sea Level Pressure  
Sea Level Pressure 30.03 in    
Wind  
Wind Speed 5 mph (SSE)    
Max Wind Speed 18 mph    
Max Gust Speed 22 mph    
Visibility 9 miles    
Events Rain , Thunderstorm    
T = Trace of Precipitation, MM = Missing Value Source: NWS Daily Summary

Daily Weather History Graph

Daily Weather History Graph

Search for Another Location

Airport or City:

Astronomy

Jul. 20, 2019 Rise Set
Actual Time 6:11 AM CDT 8:00 PM CDT
Civil Twilight 5:45 AM CDT 8:27 PM CDT
Nautical Twilight 5:13 AM CDT 8:59 PM CDT
Astronomical Twilight 4:39 AM CDT 9:33 PM CDT
Moon 10:41 PM CDT (7/20) 9:25 AM CDT (7/20)
Length of Visible Light 14h 42m
Length of Day
13h 48m
Waning Gibbous, 87% of the Moon is Illuminated
Jul 20
Waning Gibbous
Jul 24
Last Quarter
Jul 31
New
Aug 7
First Quarter
Aug 15
Full

Hourly Weather History & Observations

Time (CDT) Temp. Heat Index Dew Point Humidity Pressure Visibility Wind Dir Wind Speed Gust Speed Precip Events Conditions
12:53 AM 82.9 °F 90.2 °F 75.0 °F 77% 30.01 in 10.0 mi South 5.8 mph - N/A   Clear
1:53 AM 82.0 °F 88.6 °F 75.0 °F 79% 29.99 in 10.0 mi South 4.6 mph - N/A   Clear
2:53 AM 82.9 °F 90.8 °F 75.9 °F 79% 29.99 in 10.0 mi SSE 3.5 mph - N/A   Clear
3:53 AM 82.9 °F 90.8 °F 75.9 °F 79% 29.99 in 10.0 mi Calm Calm - N/A   Clear
4:43 AM 82.9 °F 90.8 °F 75.9 °F 79% 30.02 in 10.0 mi SE 3.5 mph - N/A Thunderstorm Clear
4:53 AM 82.9 °F 90.8 °F 75.9 °F 79% 30.01 in 10.0 mi SSE 3.5 mph - N/A   Clear
5:13 AM 82.9 °F 90.8 °F 75.9 °F 79% 30.03 in 10.0 mi East 5.8 mph - N/A Thunderstorm Clear
5:28 AM 82.9 °F 90.8 °F 75.9 °F 79% 30.04 in 10.0 mi ESE 5.8 mph - N/A   Partly Cloudy
5:41 AM 80.1 °F 84.2 °F 73.0 °F 79% 30.05 in 9.0 mi WSW 18.4 mph 21.9 mph N/A Thunderstorm Mostly Cloudy
5:53 AM 78.1 °F - 73.0 °F 84% 30.03 in 7.0 mi West 13.8 mph 19.6 mph 0.01 in Rain , Thunderstorm Light Rain
6:00 AM 77.0 °F - 73.0 °F 88% 30.05 in 9.0 mi WSW 15.0 mph - 0.00 in Rain Light Rain
6:53 AM 80.1 °F 83.6 °F 71.1 °F 74% 30.03 in 10.0 mi NW 5.8 mph - 0.00 in   Clear
7:53 AM 82.0 °F 86.7 °F 72.0 °F 71% 30.05 in 10.0 mi WSW 6.9 mph - N/A   Clear
8:53 AM 82.0 °F 87.4 °F 73.0 °F 74% 30.06 in 10.0 mi West 3.5 mph - N/A   Clear
9:53 AM 84.0 °F 90.2 °F 73.0 °F 69% 30.04 in 10.0 mi Calm Calm - N/A   Clear
10:53 AM 87.1 °F 95.4 °F 73.9 °F 65% 30.05 in 10.0 mi NNE 5.8 mph - N/A   Clear
11:53 AM 87.1 °F 96.3 °F 75.0 °F 67% 30.04 in 10.0 mi NNE 8.1 mph - N/A   Clear
12:06 PM 87.1 °F 96.3 °F 75.0 °F 67% 30.05 in 10.0 mi NE 8.1 mph - N/A Thunderstorm Scattered Clouds
12:16 PM 88.0 °F 98.5 °F 75.9 °F 67% 30.05 in 10.0 mi NNE 10.4 mph - N/A Thunderstorm Thunderstorm
12:31 PM 89.1 °F 100.2 °F 75.9 °F 65% 30.05 in 10.0 mi NNE 8.1 mph - N/A Thunderstorm Clear
12:38 PM 88.0 °F 98.5 °F 75.9 °F 67% 30.05 in 10.0 mi NNE 9.2 mph - N/A Thunderstorm Thunderstorm
12:53 PM 88.0 °F 98.5 °F 75.9 °F 67% 30.04 in 10.0 mi WSW 17.3 mph 25.3 mph N/A Thunderstorm Thunderstorm
1:16 PM 80.1 °F 82.3 °F 66.9 °F 64% 30.05 in 1.2 mi South 15.0 mph 21.9 mph N/A Thunderstorm Unknown
1:26 PM 80.1 °F 82.9 °F 69.1 °F 69% 30.06 in 10.0 mi SE 10.4 mph - N/A Thunderstorm Thunderstorm
1:53 PM 75.9 °F - 70.0 °F 82% 30.04 in 7.0 mi SSE 13.8 mph - 0.01 in Rain , Thunderstorm Light Rain
2:29 PM 75.9 °F - 71.1 °F 85% 30.07 in 10.0 mi SSE 15.0 mph - 0.01 in Rain Light Rain
2:53 PM 75.0 °F - 72.0 °F 90% 30.02 in 9.0 mi SSE 10.4 mph - 0.04 in Rain Light Rain
3:53 PM 75.9 °F - 72.0 °F 87% 30.03 in 10.0 mi SSE 11.5 mph - 0.03 in Rain Light Rain
4:53 PM 75.9 °F - 71.1 °F 85% 30.04 in 9.0 mi SSE 9.2 mph - 0.02 in Rain Light Rain
5:53 PM 77.0 °F - 73.0 °F 88% 30.00 in 10.0 mi South 9.2 mph - 0.04 in Rain Light Rain
6:53 PM 78.1 °F - 72.0 °F 81% 29.98 in 10.0 mi SSE 6.9 mph - 0.00 in   Clear
7:53 PM 78.1 °F - 73.0 °F 84% 29.97 in 10.0 mi South 4.6 mph - N/A   Clear
8:53 PM 78.1 °F - 73.0 °F 84% 30.00 in 10.0 mi South 4.6 mph - N/A   Clear
9:53 PM 77.0 °F - 72.0 °F 84% 30.00 in 10.0 mi South 4.6 mph - N/A   Clear
10:53 PM 77.0 °F - 73.0 °F 88% 30.01 in 10.0 mi SSE 4.6 mph - N/A   Clear
11:53 PM 78.1 °F - 73.9 °F 87% 30.01 in 8.0 mi SE 6.9 mph - N/A   Clear